[[{"header":{"parameterUnit":"m.s-1","parameterCategory":1,"la1":30.2991,"la2":30.254,"lo1":-89.0895,"lo2":-89.0444,"dy":0.0017,"dx":0.0017,"nx":28,"ny":28,"refTime":"2024-04-26T03:00:00:Z","depth":0,"parameterNumber":2,"parameterNumberName":"U-component_of_WINDS"},"data":[0,0,0,0,0,0,0,0,0,0,0,0,0,0,0,0,0,0,0,0,0,0,0,0,0,0,0,0,0,0,0,0,0,0,0,0,0,0,0,0,0,0,0,0,0,0,0,0,0,0,0,0,0,0,0,0,0,0,-6.6599,-6.66,0,-6.6652,-6.6652,-6.6653,-6.6637,-6.6636,-6.6635,-6.6634,-6.6683,-6.6686,-6.6688,0,0,0,0,0,0,0,0,0,0,0,0,0,-6.6483,-6.6485,-6.6599,-6.66,-6.66,-6.6651,-6.6652,-6.6653,-6.6637,-6.6636,-6.6635,-6.6633,-6.6683,-6.6685,-6.6688,0,0,0,0,0,0,0,0,0,0,0,0,0,-6.6534,-6.6486,-6.6599,-6.6599,-6.6599,-6.6651,-6.6652,-6.6653,-6.6637,-6.6636,-6.6634,-6.6633,-6.6682,-6.6685,-6.6688,-6.6742,0,0,-6.6699,-6.6701,0,0,0,0,0,0,0,0,-6.6531,-6.6538,-6.6598,-6.6599,-6.66,-6.6636,-6.6629,-6.6683,-6.6638,-6.6623,-6.6634,-6.6632,-6.6669,-6.6673,-6.6686,-6.6745,-6.6747,-6.6699,-6.6702,-6.6703,-6.6704,0,0,0,0,0,0,0,-6.6528,-6.6536,-6.662,-6.6599,-6.66,-6.6595,-6.6601,-6.6639,-6.6654,-6.6624,-6.6623,-6.663,-6.6669,-6.6683,-6.6687,-6.6748,-6.6699,-6.6702,-6.6705,-6.6706,-6.6853,-6.6855,0,0,0,0,0,0,-6.6524,-6.6533,-6.6618,-6.6621,-6.6561,-6.6599,-6.6605,-6.6626,-6.6654,-6.6656,-6.6631,-6.6629,-6.6678,-6.6683,-6.6689,-6.6753,-6.6703,-6.6706,-6.6708,-6.6851,-6.6854,-6.6856,0,0,0,0,0,0,-6.6522,-6.6532,-6.6616,-6.6577,-6.6587,-6.6603,-6.6626,-6.6628,-6.6642,-6.6659,-6.6661,-6.6643,-6.6677,-6.6684,-6.673,-6.6755,-6.6708,-6.6711,-6.6849,-6.6852,-6.6855,-6.6883,0,0,0,0,0,0,-6.6518,-6.6531,-6.6552,-6.6578,-6.659,-6.6656,-6.6628,-6.663,-6.6649,-6.6646,-6.6671,-6.6673,-6.6676,-6.6725,-6.6733,-6.6759,-6.6714,-6.6847,-6.6851,-6.6854,-6.6879,-6.6886,-6.6892,0,0,0,0,0,-6.6514,-6.6557,-6.6553,-6.6563,-6.6616,-6.6658,-6.6664,-6.6668,-6.6651,-6.6671,-6.6683,-6.6672,-6.6752,-6.6729,-6.6739,-6.6766,-6.6845,-6.685,-6.6854,-6.6877,-6.6885,-6.6892,0,0,0,0,0,0,-6.6531,-6.656,-6.6556,-6.6609,-6.6631,-6.6655,-6.6681,-6.6676,-6.6703,-6.6699,-6.6701,-6.6707,-6.6754,-6.6765,-6.6739,-6.682,-6.6796,-6.6802,-6.681,-6.6818,-6.6824,-6.6819,-6.6717,0,0,0,0,0,-6.6542,-6.6574,-6.6597,-6.6641,-6.6653,-6.6665,-6.6683,-6.6685,-6.6707,-6.6716,-6.6731,-6.6752,-6.6782,-6.6801,-6.6829,-6.6883,-6.6887,-6.6906,-6.6912,-6.6917,-6.6921,-6.695,-6.6958,-6.6869,-6.6869,-6.6869,0,0,-6.6562,-6.6582,-6.6602,-6.6645,-6.6662,-6.6695,-6.6673,-6.6708,-6.6732,-6.6721,-6.6765,-6.6777,-6.6801,-6.685,-6.6873,-6.6861,-6.6948,-6.6922,-6.6926,-6.6928,-6.6955,-6.6963,-6.6971,-6.6872,-6.6871,-6.6871,0,0,-6.6616,-6.6635,-6.6673,-6.6692,-6.672,-6.6729,-6.6738,-6.6764,-6.6772,-6.6816,-6.6809,-6.6837,-6.6889,-6.6906,-6.6922,-6.6986,-6.6977,-6.6995,-6.7025,-6.7053,-6.706,-6.7067,-6.7088,-6.7095,-6.7,-6.7,-6.7,0,-6.6637,-6.6687,-6.6693,-6.673,-6.6748,-6.6743,-6.6782,-6.68,-6.6835,-6.6847,-6.6835,-6.69,-6.6916,-6.6969,-6.6985,-6.6999,-6.7008,-6.699,-6.7059,-6.7065,-6.7071,-6.7091,-6.71,-6.7002,-6.7002,-6.7002,-6.7002,0,-6.6711,-6.6746,-6.6774,-6.6809,-6.6832,-6.6869,-6.6881,-6.6903,-6.6903,-6.6913,-6.6959,-6.6979,-6.7011,-6.7024,-6.7024,-6.7078,-6.707,-6.7059,-6.7034,-6.7081,-6.71,-6.7108,-6.7005,-6.7004,-6.7004,-6.7003,0,0,-6.6772,-6.6814,-6.6824,-6.684,-6.6872,-6.6899,-6.6937,-6.697,-6.6988,-6.7014,-6.7044,-6.7089,-6.7079,-6.7097,-6.71,-6.7125,-6.7173,-6.711,-6.7111,-6.7119,-6.7232,-6.7238,-6.7247,-6.7169,-6.7171,-6.7172,-6.7229,0,-6.6827,-6.6893,-6.6902,-6.6961,-6.6992,-6.699,-6.7023,-6.7045,-6.7056,-6.7084,-6.7097,-6.7128,-6.7113,-6.7124,-6.7149,-6.7162,-6.7195,-6.7158,-6.7195,-6.7196,-6.7186,-6.7257,-6.7264,-6.7317,-6.7237,-6.7238,-6.7239,0,-6.6898,-6.6928,-6.699,-6.7019,-6.7032,-6.7062,-6.7093,-6.7121,-6.7147,-6.7154,-6.7175,-6.7175,-6.7213,-6.719,-6.7242,-6.7217,-6.7234,-6.7242,-6.7245,-6.7245,-6.7218,-6.7258,-6.7334,-6.7341,-6.7251,-6.725,-6.7249,0,-6.6934,-6.699,-6.7034,-6.7049,-6.7084,-6.7104,-6.712,-6.7145,-6.7165,-6.7193,-6.7206,-6.7238,-6.7254,-6.7279,-6.7287,-6.727,-6.7339,-6.7316,-6.7343,-6.7343,-6.7355,-6.7353,-6.7432,-6.7371,-6.737,-6.737,-6.737,0,-6.6992,-6.703,-6.7051,-6.7078,-6.712,-6.7131,-6.7172,-6.7186,-6.7209,-6.7238,-6.7239,-6.7266,-6.7277,-6.7306,-6.7313,-6.7355,-6.7363,-6.7368,-6.7369,-6.7366,-6.7365,-6.7374,-6.737,-6.7372,-6.7372,-6.7371,-6.7371,0,-6.7038,-6.7054,-6.7102,-6.7133,-6.7142,-6.7171,-6.7197,-6.7223,-6.7235,-6.7272,-6.7282,-6.7301,-6.7335,-6.7347,-6.7388,-6.7393,-6.7441,-6.744,-6.7432,-6.7431,-6.7457,-6.7454,-6.7542,-6.7554,-6.7487,-6.7487,-6.7488,0,-6.7072,-6.7102,-6.7136,-6.7157,-6.7174,-6.7206,-6.7228,-6.724,-6.7262,-6.7295,-6.7317,-6.7352,-6.7379,-6.7435,-6.7451,-6.7483,-6.7481,-6.7511,-6.7486,-6.7483,-6.7479,-6.7476,-6.7479,-6.7514,-6.7514,-6.7515,-6.7515,0,-6.7131,-6.7138,-6.7169,-6.7204,-6.723,-6.7257,-6.7284,-6.73,-6.7316,-6.7341,-6.7377,-6.7399,-6.7443,-6.7477,-6.751,-6.7525,-6.7522,-6.7524,-6.7531,-6.7527,-6.7521,-6.7523,-6.7441,-6.7521,-6.752,-6.752,-6.7519,-6.7519,-6.7171,-6.7197,-6.7226,-6.7261,-6.7283,-6.7308,-6.7334,-6.7351,-6.7382,-6.7419,-6.7425,-6.7463,-6.749,-6.7535,-6.7552,-6.7581,-6.7573,-6.7584,-6.7587,-6.7589,-6.759,-6.7519,-6.7588,-6.7588,-6.7587,-6.7587,-6.7587,0,-6.7228,-6.7247,-6.728,-6.7318,-6.7345,-6.7344,-6.7374,-6.7396,-6.7431,-6.7457,-6.7486,-6.7527,-6.7561,-6.7582,-6.7616,-6.7636,-6.7635,-6.7644,-6.7641,-6.7644,-6.7596,-6.7585,-6.7643,-6.7643,-6.7643,-6.7643,-6.7643,-6.7643,-6.726,-6.7304,-6.7315,-6.737,-6.7389,-6.7428,-6.7445,-6.7468,-6.7489,-6.7536,-6.7565,-6.7579,-6.7603,-6.7639,-6.767,-6.7676,-6.7687,-6.7696,-6.77,-6.7653,-6.7648,-6.7642,-6.7631,-6.7699,-6.7699,-6.7745,-6.7746,-6.7746]},{"header":{"parameterUnit":"m.s-1","parameterCategory":1,"la1":30.2991,"la2":30.254,"lo1":-89.0895,"lo2":-89.0444,"dy":0.0017,"dx":0.0017,"nx":28,"ny":28,"refTime":"2024-04-26T03:00:00:Z","depth":0,"parameterNumber":3,"parameterNumberName":"V-component_of_WINDS"},"data":[0,0,0,0,0,0,0,0,0,0,0,0,0,0,0,0,0,0,0,0,0,0,0,0,0,0,0,0,0,0,0,0,0,0,0,0,0,0,0,0,0,0,0,0,0,0,0,0,0,0,0,0,0,0,0,0,0,0,4.3001,4.3002,0,4.3088,4.3089,4.309,4.3174,4.3175,4.3176,4.3177,4.3259,4.326,4.3261,0,0,0,0,0,0,0,0,0,0,0,0,0,4.2903,4.2904,4.3001,4.3002,4.3003,4.3087,4.3089,4.309,4.3174,4.3175,4.3176,4.3178,4.3258,4.326,4.3261,0,0,0,0,0,0,0,0,0,0,0,0,0,4.2963,4.2905,4.3001,4.3055,4.3061,4.3087,4.3089,4.309,4.3173,4.3175,4.3177,4.3178,4.3258,4.3259,4.3261,4.3238,0,0,4.3266,4.3267,0,0,0,0,0,0,0,0,4.2959,4.2966,4.3046,4.3051,4.3058,4.3122,4.3084,4.3139,4.3173,4.313,4.3177,4.3179,4.3211,4.3217,4.3229,4.3242,4.3246,4.3266,4.3267,4.3268,4.3269,0,0,0,0,0,0,0,4.2955,4.2963,4.3035,4.3047,4.3054,4.3074,4.3084,4.3095,4.316,4.3134,4.3141,4.315,4.3215,4.3227,4.3232,4.3247,4.3266,4.3268,4.3269,4.327,4.3248,4.3246,0,0,0,0,0,0,4.2943,4.2959,4.3032,4.3038,4.3012,4.3074,4.3086,4.3099,4.316,4.3171,4.3149,4.3154,4.3224,4.323,4.3235,4.3214,4.3268,4.327,4.3271,4.3249,4.3247,4.3245,0,0,0,0,0,0,4.2941,4.2949,4.3029,4.3,4.3012,4.3074,4.3089,4.31,4.3113,4.3171,4.3183,4.315,4.3225,4.3232,4.3238,4.3218,4.3271,4.3272,4.3251,4.3249,4.3246,4.3171,0,0,0,0,0,0,4.2938,4.2948,4.2941,4.2999,4.3013,4.3031,4.3088,4.3101,4.3117,4.3124,4.3176,4.3185,4.3227,4.3235,4.324,4.3221,4.3273,4.3253,4.325,4.3247,4.3175,4.3166,4.3158,0,0,0,0,0,4.2934,4.2914,4.294,4.2948,4.3006,4.303,4.3038,4.3088,4.3115,4.3108,4.3145,4.3184,4.3219,4.3235,4.3241,4.3223,4.3255,4.3251,4.3247,4.3179,4.3168,4.3159,0,0,0,0,0,0,4.2848,4.2922,4.2952,4.2951,4.2984,4.3044,4.3037,4.3074,4.3098,4.3104,4.3163,4.3174,4.3173,4.3198,4.3214,4.3205,4.3242,4.324,4.3189,4.3178,4.317,4.3164,4.3275,0,0,0,0,0,4.2829,4.2845,4.2908,4.2901,4.2916,4.2974,4.2986,4.3022,4.3058,4.3071,4.311,4.3141,4.316,4.317,4.319,4.3179,4.3192,4.317,4.3161,4.3154,4.3151,4.3149,4.3141,4.3234,4.3234,4.3234,0,0,4.279,4.2832,4.2838,4.2885,4.2915,4.2928,4.2985,4.2996,4.3006,4.3072,4.3081,4.311,4.3149,4.3147,4.3148,4.3168,4.3129,4.315,4.3143,4.3145,4.3145,4.3136,4.3128,4.3231,4.3232,4.3232,0,0,4.2725,4.2759,4.2758,4.2788,4.2834,4.2873,4.2872,4.2928,4.2951,4.2961,4.3012,4.3024,4.3054,4.3081,4.3098,4.3046,4.3083,4.3051,4.3006,4.3003,4.2996,4.299,4.2973,4.2966,4.3048,4.3047,4.3047,0,4.267,4.2695,4.2752,4.2762,4.2781,4.2845,4.2844,4.2869,4.2917,4.2929,4.2951,4.2993,4.3023,4.3029,4.3017,4.3028,4.303,4.3045,4.2993,4.2987,4.2982,4.2967,4.296,4.3043,4.3044,4.3044,4.3045,0,4.2625,4.2642,4.2635,4.2685,4.2703,4.2706,4.2763,4.2775,4.281,4.2846,4.2856,4.2895,4.2925,4.2929,4.2961,4.294,4.2951,4.2982,4.3021,4.2969,4.2955,4.2949,4.3038,4.3039,4.304,4.3041,0,0,4.2508,4.2592,4.2588,4.2613,4.2669,4.2682,4.2689,4.2722,4.2731,4.2762,4.2769,4.2795,4.2825,4.2845,4.2881,4.2878,4.2837,4.291,4.2912,4.2896,4.2817,4.2794,4.2786,4.2862,4.2861,4.286,4.2814,0,4.2454,4.2474,4.2526,4.2529,4.2545,4.2607,4.2613,4.2647,4.2681,4.2699,4.2735,4.2754,4.2791,4.2804,4.2804,4.2842,4.2822,4.2846,4.2868,4.2868,4.2858,4.2779,4.2754,4.2709,4.2809,4.2808,4.2808,0,4.2394,4.2426,4.2431,4.2489,4.2498,4.2503,4.2538,4.2554,4.2595,4.262,4.2643,4.2685,4.2694,4.273,4.2745,4.276,4.2772,4.2792,4.2792,4.2796,4.2835,4.2782,4.2696,4.2689,4.2799,4.28,4.2801,0,4.231,4.2353,4.2363,4.2382,4.2449,4.2452,4.2479,4.2522,4.2539,4.2569,4.2581,4.261,4.2626,4.2647,4.2695,4.2717,4.2704,4.2744,4.2725,4.2723,4.2719,4.2719,4.2634,4.2725,4.2725,4.2725,4.2726,0,4.2245,4.2246,4.2327,4.2333,4.2336,4.2396,4.2396,4.2429,4.2467,4.248,4.2533,4.2543,4.2606,4.2623,4.266,4.2667,4.2673,4.2693,4.2703,4.2689,4.2686,4.2698,4.2702,4.2724,4.2724,4.2724,4.2725,0,4.2152,4.2206,4.2221,4.2285,4.2301,4.2301,4.2355,4.2362,4.2401,4.2416,4.2422,4.2481,4.2504,4.2555,4.259,4.2615,4.2613,4.263,4.26,4.2607,4.2585,4.2587,4.2506,4.2499,4.2592,4.2591,4.2591,0,4.2107,4.211,4.2176,4.219,4.2217,4.2238,4.2257,4.2316,4.2332,4.238,4.2382,4.241,4.2435,4.2468,4.2513,4.2541,4.256,4.253,4.2564,4.255,4.2561,4.2561,4.2562,4.2522,4.252,4.2519,4.2518,0,4.2023,4.2051,4.2077,4.2114,4.2136,4.2166,4.2199,4.2207,4.2273,4.2289,4.2316,4.2335,4.2374,4.24,4.2435,4.2462,4.2501,4.2508,4.2505,4.2491,4.2474,4.2484,4.258,4.2509,4.251,4.2511,4.2511,4.2512,4.1954,4.1961,4.2009,4.2037,4.2069,4.21,4.2111,4.2152,4.2176,4.2214,4.2246,4.2269,4.231,4.2362,4.2386,4.2404,4.2423,4.2419,4.2418,4.2416,4.2411,4.2471,4.241,4.2411,4.2411,4.2411,4.2412,0,4.1874,4.191,4.1935,4.1982,4.2004,4.2042,4.2081,4.2096,4.2117,4.2154,4.2179,4.2209,4.2236,4.2284,4.2314,4.2319,4.2338,4.2326,4.2326,4.2332,4.2391,4.2391,4.231,4.231,4.231,4.231,4.231,4.231,4.1836,4.185,4.1883,4.1913,4.1947,4.1973,4.1993,4.2021,4.2051,4.2083,4.2107,4.2139,4.218,4.2215,4.2241,4.2254,4.2263,4.2245,4.2263,4.2318,4.2327,4.2336,4.2337,4.2246,4.2246,4.2203,4.2203,4.2202]}]]